[[{"header":{"parameterUnit":"m.s-1","parameterCategory":1,"la1":30.2991,"la2":30.254,"lo1":-89.0895,"lo2":-89.0444,"dy":0.0017,"dx":0.0017,"nx":28,"ny":28,"refTime":"2024-08-26T09:00:00:Z","depth":0,"parameterNumber":2,"parameterNumberName":"U-component_of_WINDS"},"data":[0,0,0,0,0,0,0,0,0,0,0,0,0,0,0,0,0,0,0,0,0,0,0,0,0,0,0,0,0,0,0,0,0,0,0,0,0,0,0,0,0,0,0,0,0,0,0,0,0,0,0,0,0,0,0,0,0,0,-0.3831,-0.3831,0,-0.384,-0.384,-0.384,-0.3787,-0.3785,-0.3784,-0.3782,-0.3794,-0.3795,-0.3797,0,0,0,0,0,0,0,0,0,0,0,0,0,-0.3774,-0.3776,-0.3831,-0.3831,-0.3832,-0.384,-0.384,-0.384,-0.3787,-0.3785,-0.3783,-0.3782,-0.3793,-0.3795,-0.3797,0,0,0,0,0,0,0,0,0,0,0,0,0,-0.3793,-0.3776,-0.3831,-0.3806,-0.3804,-0.384,-0.384,-0.384,-0.3787,-0.3785,-0.3783,-0.3781,-0.3793,-0.3795,-0.3798,-0.3859,0,0,-0.3805,-0.3806,0,0,0,0,0,0,0,0,-0.3792,-0.3795,-0.381,-0.3808,-0.3806,-0.381,-0.3824,-0.3846,-0.3788,-0.3794,-0.3782,-0.378,-0.3801,-0.3803,-0.3809,-0.3859,-0.386,-0.3806,-0.3807,-0.3808,-0.3809,0,0,0,0,0,0,0,-0.379,-0.3794,-0.3835,-0.381,-0.3808,-0.3796,-0.3796,-0.3828,-0.381,-0.3793,-0.3789,-0.3791,-0.38,-0.3807,-0.3809,-0.386,-0.3806,-0.3808,-0.3809,-0.381,-0.3963,-0.3966,0,0,0,0,0,0,-0.3792,-0.3793,-0.3834,-0.3835,-0.3793,-0.3799,-0.3799,-0.3811,-0.381,-0.3807,-0.3793,-0.3788,-0.3804,-0.3806,-0.381,-0.3883,-0.3808,-0.3811,-0.3812,-0.3961,-0.3964,-0.3966,0,0,0,0,0,0,-0.3791,-0.3796,-0.3834,-0.3813,-0.3817,-0.3802,-0.3816,-0.3812,-0.382,-0.3809,-0.3806,-0.3803,-0.3802,-0.3806,-0.3847,-0.3882,-0.3812,-0.3814,-0.3958,-0.3962,-0.3965,-0.4029,0,0,0,0,0,0,-0.379,-0.3796,-0.3818,-0.3814,-0.3818,-0.3871,-0.3818,-0.3814,-0.3824,-0.3818,-0.3819,-0.3816,-0.3801,-0.3844,-0.385,-0.3885,-0.3816,-0.3955,-0.3959,-0.3964,-0.4024,-0.4035,-0.4044,0,0,0,0,0,-0.3788,-0.3836,-0.3819,-0.3825,-0.3845,-0.3873,-0.3875,-0.3855,-0.3827,-0.385,-0.3844,-0.3816,-0.3878,-0.3848,-0.3855,-0.3891,-0.3952,-0.3958,-0.3964,-0.4019,-0.4033,-0.4044,0,0,0,0,0,0,-0.3845,-0.3835,-0.3816,-0.3864,-0.387,-0.3864,-0.3892,-0.3869,-0.3884,-0.3878,-0.3853,-0.3854,-0.39,-0.39,-0.3867,-0.3952,-0.391,-0.3917,-0.395,-0.3963,-0.3973,-0.3972,-0.3818,0,0,0,0,0,-0.3863,-0.3885,-0.3875,-0.3918,-0.3922,-0.3907,-0.3918,-0.3902,-0.3907,-0.3909,-0.3906,-0.3913,-0.3934,-0.3948,-0.3966,-0.4023,-0.4024,-0.4052,-0.4062,-0.407,-0.4077,-0.411,-0.4122,-0.3985,-0.3985,-0.3985,0,0,-0.3901,-0.3898,-0.3913,-0.393,-0.3932,-0.3957,-0.3909,-0.3937,-0.3956,-0.3914,-0.3953,-0.3951,-0.3957,-0.4007,-0.4029,-0.4008,-0.4115,-0.4077,-0.4084,-0.4086,-0.4117,-0.413,-0.4141,-0.3989,-0.3988,-0.3988,0,0,-0.3983,-0.3982,-0.4019,-0.4022,-0.4026,-0.4016,-0.4025,-0.4023,-0.402,-0.4058,-0.4028,-0.4051,-0.4087,-0.4093,-0.4101,-0.4188,-0.4165,-0.4195,-0.4248,-0.428,-0.4291,-0.43,-0.4333,-0.4345,-0.4202,-0.4202,-0.4202,0,-0.4029,-0.4064,-0.4041,-0.4071,-0.4081,-0.4043,-0.4082,-0.4087,-0.4097,-0.4106,-0.4082,-0.4127,-0.4129,-0.4181,-0.4203,-0.4209,-0.4221,-0.4195,-0.4291,-0.43,-0.4309,-0.434,-0.4352,-0.4206,-0.4205,-0.4205,-0.4204,0,-0.4123,-0.4148,-0.4177,-0.4188,-0.4201,-0.4235,-0.4219,-0.4234,-0.4218,-0.4211,-0.4253,-0.4253,-0.4272,-0.4283,-0.4267,-0.4334,-0.4321,-0.4295,-0.4253,-0.4326,-0.4355,-0.4367,-0.4211,-0.421,-0.4208,-0.4208,0,0,-0.424,-0.4238,-0.425,-0.4255,-0.4258,-0.4278,-0.4311,-0.4329,-0.4345,-0.4354,-0.4383,-0.4415,-0.4391,-0.44,-0.4385,-0.4413,-0.4485,-0.4383,-0.4383,-0.4403,-0.4561,-0.4582,-0.4596,-0.4469,-0.4471,-0.4473,-0.4561,0,-0.4322,-0.4378,-0.4359,-0.4417,-0.4441,-0.4407,-0.4437,-0.4443,-0.4438,-0.4459,-0.4453,-0.4478,-0.4443,-0.4448,-0.4474,-0.447,-0.4516,-0.4463,-0.4498,-0.4499,-0.4499,-0.4611,-0.4633,-0.4717,-0.4572,-0.4574,-0.4575,0,-0.4424,-0.4437,-0.4497,-0.4498,-0.4507,-0.4534,-0.4551,-0.457,-0.4577,-0.4572,-0.4583,-0.4563,-0.4598,-0.4556,-0.4605,-0.457,-0.4583,-0.4584,-0.4586,-0.459,-0.4543,-0.462,-0.4743,-0.4756,-0.4593,-0.4591,-0.459,0,-0.4506,-0.4539,-0.458,-0.4585,-0.4586,-0.4606,-0.4608,-0.4612,-0.4625,-0.464,-0.4649,-0.4668,-0.4679,-0.4695,-0.4681,-0.4651,-0.4734,-0.4689,-0.4732,-0.4733,-0.4752,-0.4751,-0.4881,-0.4758,-0.4758,-0.4758,-0.4757,0,-0.46,-0.4639,-0.4617,-0.4642,-0.4686,-0.4664,-0.4708,-0.4706,-0.4711,-0.4737,-0.4709,-0.4734,-0.4714,-0.4738,-0.4727,-0.4772,-0.4776,-0.4774,-0.4772,-0.4778,-0.4779,-0.4787,-0.4782,-0.4761,-0.476,-0.4759,-0.4759,0,-0.47,-0.4686,-0.4729,-0.4726,-0.4727,-0.4759,-0.4758,-0.4783,-0.4776,-0.4809,-0.4816,-0.4806,-0.4833,-0.482,-0.4849,-0.4842,-0.49,-0.4888,-0.4897,-0.4895,-0.4939,-0.4936,-0.508,-0.5099,-0.4962,-0.4964,-0.4965,0,-0.4761,-0.479,-0.4791,-0.4806,-0.481,-0.4834,-0.4847,-0.4828,-0.4843,-0.4854,-0.4878,-0.4903,-0.4921,-0.4967,-0.4963,-0.4985,-0.4975,-0.5024,-0.4979,-0.4985,-0.4979,-0.4978,-0.4982,-0.5034,-0.5036,-0.5037,-0.5038,0,-0.4872,-0.4865,-0.4884,-0.4902,-0.4918,-0.4931,-0.4942,-0.4957,-0.4938,-0.4957,-0.4984,-0.4999,-0.5028,-0.5054,-0.5074,-0.5077,-0.5056,-0.5052,-0.5064,-0.5071,-0.5076,-0.5076,-0.4924,-0.5049,-0.5048,-0.5047,-0.5047,-0.5046,-0.4956,-0.4981,-0.4986,-0.501,-0.5016,-0.5027,-0.5051,-0.5047,-0.5069,-0.5091,-0.5078,-0.5111,-0.512,-0.5144,-0.5151,-0.5178,-0.5158,-0.5174,-0.5179,-0.5184,-0.5191,-0.5071,-0.5181,-0.5181,-0.518,-0.518,-0.518,0,-0.5068,-0.5069,-0.5091,-0.5107,-0.5126,-0.5103,-0.5114,-0.5132,-0.5161,-0.517,-0.5189,-0.5222,-0.5247,-0.5246,-0.527,-0.5292,-0.5283,-0.5299,-0.5298,-0.53,-0.5205,-0.5194,-0.5306,-0.5306,-0.5306,-0.5306,-0.5306,-0.5306,-0.5128,-0.517,-0.5164,-0.5209,-0.5211,-0.5242,-0.5251,-0.5263,-0.527,-0.5307,-0.5328,-0.5326,-0.5333,-0.5357,-0.538,-0.5379,-0.539,-0.5411,-0.5407,-0.5318,-0.5306,-0.5294,-0.5283,-0.5413,-0.5413,-0.5499,-0.55,-0.5501]},{"header":{"parameterUnit":"m.s-1","parameterCategory":1,"la1":30.2991,"la2":30.254,"lo1":-89.0895,"lo2":-89.0444,"dy":0.0017,"dx":0.0017,"nx":28,"ny":28,"refTime":"2024-08-26T09:00:00:Z","depth":0,"parameterNumber":3,"parameterNumberName":"V-component_of_WINDS"},"data":[0,0,0,0,0,0,0,0,0,0,0,0,0,0,0,0,0,0,0,0,0,0,0,0,0,0,0,0,0,0,0,0,0,0,0,0,0,0,0,0,0,0,0,0,0,0,0,0,0,0,0,0,0,0,0,0,0,0,2.8214,2.8214,0,2.8191,2.8191,2.8191,2.818,2.818,2.818,2.818,2.8153,2.8152,2.8151,0,0,0,0,0,0,0,0,0,0,0,0,0,2.8245,2.8245,2.8214,2.8214,2.8214,2.8191,2.8191,2.8191,2.818,2.818,2.818,2.818,2.8153,2.8152,2.8151,0,0,0,0,0,0,0,0,0,0,0,0,0,2.8228,2.8245,2.8214,2.8206,2.8205,2.8191,2.8191,2.8191,2.818,2.818,2.818,2.818,2.8153,2.8152,2.8151,2.8144,0,0,2.8148,2.8147,0,0,0,0,0,0,0,0,2.8229,2.8227,2.8207,2.8206,2.8205,2.8189,2.8192,2.8175,2.818,2.8189,2.818,2.818,2.8164,2.8162,2.8158,2.8142,2.8141,2.8147,2.8147,2.8146,2.8146,0,0,0,0,0,0,0,2.823,2.8228,2.8205,2.8207,2.8206,2.8202,2.8199,2.8189,2.8177,2.8188,2.8187,2.8185,2.8164,2.8159,2.8157,2.8141,2.8147,2.8146,2.8146,2.8145,2.8118,2.8118,0,0,0,0,0,0,2.8233,2.8229,2.8206,2.8204,2.8218,2.8201,2.8199,2.8194,2.8177,2.8174,2.8185,2.8185,2.8161,2.8158,2.8156,2.8146,2.8146,2.8145,2.8145,2.8118,2.8118,2.8118,0,0,0,0,0,0,2.8234,2.8231,2.8207,2.8216,2.8213,2.8201,2.8195,2.8193,2.8188,2.8174,2.8172,2.8183,2.8161,2.8158,2.8147,2.8145,2.8145,2.8144,2.8118,2.8118,2.8118,2.8127,0,0,0,0,0,0,2.8235,2.8232,2.823,2.8217,2.8213,2.8199,2.8195,2.8193,2.8187,2.8186,2.8171,2.8169,2.816,2.8149,2.8146,2.8144,2.8143,2.8118,2.8118,2.8118,2.8127,2.8127,2.8128,0,0,0,0,0,2.8236,2.8232,2.8229,2.8227,2.821,2.8199,2.8197,2.8188,2.8187,2.8184,2.8175,2.8169,2.8146,2.8148,2.8145,2.8142,2.8118,2.8118,2.8118,2.8127,2.8127,2.8128,0,0,0,0,0,0,2.8244,2.823,2.8227,2.8219,2.821,2.8197,2.8193,2.8189,2.8179,2.8179,2.8168,2.8164,2.8155,2.8147,2.8149,2.8134,2.8132,2.8131,2.8139,2.814,2.814,2.8142,2.8142,0,0,0,0,0,2.8245,2.8238,2.8226,2.822,2.8216,2.8206,2.8201,2.8195,2.8185,2.8181,2.8171,2.8161,2.8151,2.8145,2.8135,2.8126,2.8122,2.8123,2.8123,2.8123,2.8123,2.8117,2.8117,2.8118,2.8118,2.8118,0,0,2.8246,2.8238,2.8234,2.8221,2.8214,2.8207,2.8203,2.8195,2.8189,2.8179,2.8169,2.8162,2.8149,2.814,2.8135,2.8133,2.8122,2.8123,2.8124,2.8123,2.8117,2.8117,2.8117,2.8118,2.8118,2.8118,0,0,2.8245,2.8238,2.8233,2.8226,2.8215,2.8209,2.8207,2.8195,2.819,2.818,2.8173,2.8165,2.8149,2.8141,2.8134,2.8131,2.8125,2.8128,2.813,2.8125,2.8125,2.8124,2.8123,2.8123,2.8127,2.8127,2.8127,0,2.8248,2.8237,2.823,2.8223,2.8217,2.821,2.8204,2.8197,2.8183,2.8179,2.8178,2.8158,2.8149,2.8137,2.8137,2.8132,2.8129,2.8129,2.8125,2.8125,2.8125,2.8123,2.8123,2.8128,2.8128,2.8128,2.8128,0,2.8241,2.8234,2.8231,2.8219,2.8213,2.8207,2.8198,2.8192,2.8187,2.818,2.817,2.8159,2.8148,2.8144,2.8139,2.8132,2.8131,2.8128,2.8125,2.8125,2.8124,2.8123,2.8128,2.8128,2.8128,2.8128,0,0,2.8243,2.8229,2.8228,2.8223,2.8211,2.8205,2.8198,2.8188,2.8183,2.8174,2.8168,2.8155,2.8152,2.8144,2.8138,2.8133,2.8131,2.813,2.813,2.8131,2.8123,2.8125,2.8125,2.8128,2.8128,2.8127,2.8124,0,2.824,2.8229,2.8222,2.8213,2.8206,2.8199,2.8193,2.8184,2.8178,2.817,2.8163,2.8154,2.8151,2.8146,2.8142,2.8133,2.8129,2.8133,2.812,2.812,2.8124,2.8124,2.8126,2.8123,2.8123,2.8123,2.8123,0,2.8235,2.8228,2.8218,2.8208,2.8205,2.82,2.819,2.8183,2.8173,2.8169,2.8162,2.8155,2.8147,2.8145,2.8133,2.8136,2.813,2.8125,2.8125,2.8123,2.8121,2.8122,2.8122,2.8121,2.8122,2.8122,2.8122,0,2.8238,2.8225,2.8218,2.8214,2.8202,2.8198,2.8193,2.8183,2.8178,2.8169,2.8165,2.8155,2.8149,2.8141,2.8132,2.8132,2.8121,2.8118,2.8116,2.8116,2.8113,2.8113,2.8112,2.811,2.811,2.811,2.811,0,2.8235,2.8229,2.8219,2.8215,2.8208,2.82,2.8193,2.8187,2.8179,2.8172,2.8165,2.8159,2.8148,2.814,2.8133,2.8124,2.8121,2.8116,2.8114,2.8117,2.8117,2.8113,2.8113,2.811,2.811,2.811,2.811,0,2.8236,2.823,2.8221,2.8211,2.8208,2.8203,2.8194,2.8189,2.8182,2.8174,2.8172,2.8161,2.8152,2.8142,2.8129,2.8124,2.8115,2.8112,2.8119,2.8117,2.8116,2.8116,2.8111,2.811,2.8109,2.8109,2.8109,0,2.8235,2.8231,2.822,2.8216,2.8211,2.8204,2.8199,2.8191,2.8186,2.8175,2.8171,2.8161,2.8153,2.8138,2.8128,2.8118,2.8115,2.8114,2.8114,2.8116,2.8115,2.8115,2.8115,2.8114,2.8115,2.8115,2.8115,0,2.8233,2.823,2.8223,2.8216,2.821,2.8203,2.8196,2.8193,2.8183,2.8178,2.8169,2.8162,2.815,2.814,2.8129,2.8122,2.8116,2.8115,2.8114,2.8116,2.812,2.8118,2.8119,2.8115,2.8115,2.8115,2.8115,2.8115,2.8233,2.8229,2.8221,2.8214,2.8208,2.8202,2.8197,2.819,2.8183,2.8173,2.8168,2.8159,2.815,2.8135,2.8128,2.812,2.8118,2.8117,2.8116,2.8116,2.8116,2.8122,2.8118,2.8118,2.8118,2.8118,2.8118,0,2.823,2.8225,2.8219,2.821,2.8204,2.8201,2.8193,2.8188,2.8181,2.8173,2.8166,2.8155,2.8146,2.8136,2.8126,2.8122,2.8119,2.8119,2.8119,2.8118,2.8118,2.812,2.8122,2.8122,2.8122,2.8122,2.8122,2.8122,2.8228,2.8221,2.8218,2.8208,2.8202,2.8194,2.819,2.8184,2.8178,2.8167,2.816,2.8154,2.8145,2.8135,2.8126,2.8123,2.812,2.8121,2.8117,2.8118,2.8118,2.8117,2.8119,2.812,2.812,2.8117,2.8117,2.8117]}]]